Regional Weather Roundup
Issued by NWS State College, PA

Home | Current Version | Previous Version | Text Only | Print | Product List | Glossary Off
Versions: 1 2 3 4 5 6 7 8 9 10 11 12 13 14 15 16 17 18 19 20 21 22 23 24 25 26 27 28 29 30 31 32 33 34 35 36 37 38 39 40 41 42 43 44 45 46 47 48 49 50

015
ASUS41 KCTP 201003
RWRCTP

REGIONAL WEATHER ROUNDUP
NATIONAL WEATHER SERVICE STATE COLLEGE PA
600 AM EDT SUN AUG 20 2017

Note: "fair" indicates few or no clouds below 12,000 feet with no
significant weather and/or obstructions to visibility.

* = STATION THAT DOES NOT REPORT PRECIPITATION /E.G. RAIN...SNOW...ETC/
    THUNDER OR FOG.

PAZ002>004-007>009-013>016-020>023-029>032-201100-
WESTERN PENNSYLVANIA

CITY           SKY/WX    TMP DP  RH WIND       PRES   REMARKS
ERIE           CLEAR     62  58  86 S7        30.06R
MEADVILLE      CLEAR     59  58  96 S5        30.10R
FRANKLIN*      CLEAR     54  52  94 S7        30.12R
NEW CASTLE     FOG       55  55 100 CALM      30.11R VSB 1/2
BEAVER COUNTY  NOT AVBL
BUTLER*        CLOUDY    55  55 100 CALM      30.12R VSB 1/4
PITTSBURGH INT FOG       60  60 100 CALM      30.10R VSB 1/8
PITTSBURGH     FOG       59  56  89 CALM      30.10R VSB 1/4
INDIANA*       FOG       55  55 100 CALM      30.14R VSB 0
LATROBE        FOG       55  55 100 CALM      30.12R VSB 1/4
WASHINGTON CO* CLEAR     55  54  94 CALM      30.11R VSB 1
$$

PAZ004>006-010>012-017>019-024>028-033>037-041-042-045-046-049>053-201100-
CENTRAL PENNSYLVANIA

CITY           SKY/WX    TMP DP  RH WIND       PRES   REMARKS
BRADFORD       PTCLDY    49  49 100 CALM      30.12R FOG
DUBOIS         FOG       54  53  97 CALM      30.11R VSB<1/4
CLEARFIELD     FOG       59  59 100 SW6       30.12R VSB 1/4
JOHNSTOWN      CLEAR     58  58 100 SW3       30.14R FOG
ALTOONA        CLEAR     56  56 100 CALM      30.12R FOG
STATE COLLEGE  CLEAR     57  57 100 CALM      30.10S
WILLIAMSPORT   CLEAR     62  61  96 W9        30.06R
SELINSGROVE    CLEAR     58  58 100 CALM      30.08R
FT INDIANTOWN  CLEAR     64  60  87 W7        30.05R
CAPITAL CITY   CLEAR     65  59  81 W5        30.06R
HARRISBURG     PTCLDY    67  61  81 NW7       30.05R
YORK           CLEAR     58  58 100 CALM      30.06R
$$

PAZ038>040-043-044-047-048-054-055-060>062-067>071-201100-
EASTERN PENNSYLVANIA

CITY           SKY/WX    TMP DP  RH WIND       PRES   REMARKS
SCRANTON       MOCLDY    62  61  96 SW6       30.05R
MOUNT POCONO     N/A     57  57 100 NW7       30.06R
ALLENTOWN      CLEAR     61  58  90 SW5       30.04R
QUAKERTOWN*    SUNNY     61  59  94 CALM      30.05R
READING        CLEAR     63  62  97 W5        30.04R
LANCASTER      PTCLDY    61  61 100 W6        30.05R
COATESVILLE    SUNNY     61  59  94 NW6       30.07R
POTTSTOWN      CLEAR     62  61  96 W3        30.06R
BLUE BELL      CLEAR     61  61 100 CALM      30.05R
DOYLESTOWN     CLEAR     63  60  90 CALM      30.03R
WILLOW GROVE   NOT AVBL
NORTH PHILA    CLEAR     67  61  81 NW8       30.04R
PHILADELPHIA   PTCLDY    69  60  73 NW8       30.03R
$$




USA.gov is the U.S. government's official web portal to all federal, state and local government web resources and services.